Location: Stockholm
(59.3330°N, 18.0500°E)
Time: 10:02:37
(UTC+01:00)

FENGYUN 1C DEB - Pass Details

Date: 13 December 2023
Orbit: 841 x 915 km, 98.8° (Epoch: 21 February)

Event Time Altitude Azimuth Distance (km) Brightness Sun altitude
Exits shadow 16:54:17 10° 26° (NNE) 2,457 ? -14.0°
Maximum altitude 16:54:35 10° 23° (NNE) 2,455 ? -14.0°
Drops below altitude 10° 16:55:30 10° 13° (NNE) 2,488 ? -14.1°
Sets 17:00:18 0° 336° (NNW) 3,443 ? -14.7°
